| time (UTC) | temp C | wind direction | speed KPH | gust KPH | rain 1hr cm | rain 24hr cm | rain mn cm | humidity % | barometer mb |
| 20260507150017 | 10 | 90 | 8.0 | 20.9 | 0.00 | 0.00 | 0.00 | 45 | 1013.1 |
| 20260507143017 | 10 | 23 | 6.4 | 16.1 | 0.00 | 0.00 | 0.00 | 43 | 1013.2 |
| 20260507140017 | 9 | 90 | 4.8 | 12.9 | 0.00 | 0.00 | 0.00 | 53 | 1013.1 |
| 20260507133016 | 8 | 113 | 6.4 | 14.5 | 0.00 | 0.00 | 0.00 | 55 | 1013.0 |
| 20260507130017 | 6 | 45 | 1.6 | 6.4 | 0.00 | 0.00 | 0.00 | 66 | 1013.4 |
| 20260507123016 | 3 | 0.0 | 3.2 | 0.00 | 0.00 | 0.00 | 76 | 1013.2 | |
| 20260507120017 | 1 | 0.0 | 3.2 | 0.00 | 0.00 | 0.00 | 79 | 1013.0 | |
| 20260507113017 | 1 | 0.0 | 6.4 | 0.00 | 0.00 | 0.00 | 78 | 1013.2 | |
| 20260507110016 | 1 | 45 | 1.6 | 8.0 | 0.00 | 0.00 | 0.00 | 78 | 1013.2 |
| 20260507103017 | 2 | 0.0 | 1.6 | 0.00 | 0.00 | 0.00 | 74 | 1013.4 | |
| 20260507100016 | 1 | 0.0 | 1.6 | 0.00 | 0.00 | 0.00 | 75 | 1013.4 | |
| 20260507093017 | 1 | 90 | 3.2 | 4.8 | 0.00 | 0.00 | 0.00 | 76 | 1013.5 |
| 20260507090016 | 2 | 0.0 | 3.2 | 0.00 | 0.00 | 0.00 | 74 | 1013.7 | |
| 20260507083016 | 2 | 90 | 1.6 | 6.4 | 0.00 | 0.00 | 0.00 | 71 | 1013.6 |
| 20260507080016 | 3 | 0.0 | 1.6 | 0.00 | 0.00 | 0.00 | 70 | 1014.0 | |
| 20260507073016 | 3 | 90 | 3.2 | 6.4 | 0.00 | 0.00 | 0.00 | 72 | 1014.1 |
| 20260507070016 | 4 | 0.0 | 0.0 | 0.00 | 0.00 | 0.00 | 67 | 1014.4 | |
| 20260507063016 | 4 | 0.0 | 1.6 | 0.00 | 0.00 | 0.00 | 65 | 1014.8 | |
| 20260507060015 | 4 | 0.0 | 0.0 | 0.00 | 0.00 | 0.00 | 66 | 1015.1 | |
| 20260507053015 | 4 | 0.0 | 0.0 | 0.00 | 0.00 | 0.00 | 64 | 1015.1 | |
| 20260507050038 | 4 | 0.0 | 3.2 | 0.00 | 0.00 | 0.00 | 63 | 1015.0 | |
| 20260507043037 | 3 | 68 | 1.6 | 4.8 | 0.00 | 0.00 | 0.00 | 63 | 1015.0 |
| 20260507040016 | 3 | 0.0 | 0.0 | 0.00 | 0.00 | 0.00 | 61 | 1015.2 | |
| 20260507033017 | 3 | 0.0 | 4.8 | 0.00 | 0.00 | 0.00 | 58 | 1015.2 | |
| 20260507030017 | 4 | 68 | 1.6 | 6.4 | 0.00 | 0.00 | 0.00 | 58 | 1015.5 |
| 20260507023016 | 5 | 45 | 4.8 | 6.4 | 0.00 | 0.00 | 0.00 | 57 | 1015.3 |
| 20260507020017 | 5 | 45 | 6.4 | 11.3 | 0.00 | 0.00 | 0.00 | 54 | 1015.4 |
| 20260507013017 | 7 | 23 | 8.0 | 14.5 | 0.00 | 0.00 | 0.00 | 50 | 1015.5 |
| 20260507010016 | 8 | 23 | 12.9 | 19.3 | 0.00 | 0.00 | 0.00 | 46 | 1015.5 |
| 20260507003016 | 9 | 338 | 17.7 | 24.1 | 0.00 | 0.00 | 0.00 | 44 | 1015.5 |
| 20260507000017 | 10 | 315 | 20.9 | 35.4 | 0.00 | 0.00 | 0.00 | 43 | 1015.8 |
| 20260506233016 | 10 | 338 | 17.7 | 30.6 | 0.00 | 0.00 | 0.00 | 44 | 1015.9 |
| 20260506230037 | 9 | 0 | 17.7 | 32.2 | 0.00 | 0.00 | 0.00 | 45 | 1016.2 |
| 20260506223036 | 9 | 315 | 22.5 | 38.6 | 0.00 | 0.00 | 0.00 | 44 | 1016.4 |
| 20260506220016 | 9 | 315 | 19.3 | 41.8 | 0.00 | 0.00 | 0.00 | 46 | 1016.4 |
| 20260506213015 | 9 | 315 | 20.9 | 37.0 | 0.00 | 0.00 | 0.00 | 46 | 1016.6 |
| 20260506210018 | 8 | 315 | 19.3 | 37.0 | 0.00 | 0.00 | 0.00 | 46 | 1017.1 |
| 20260506203018 | 8 | 315 | 17.7 | 37.0 | 0.00 | 0.00 | 0.00 | 46 | 1017.2 |
| 20260506200017 | 8 | 315 | 17.7 | 37.0 | 0.00 | 0.00 | 0.00 | 48 | 1017.3 |
| 20260506193017 | 7 | 315 | 19.3 | 32.2 | 0.00 | 0.00 | 0.00 | 50 | 1017.6 |
| 20260506190019 | 7 | 315 | 20.9 | 37.0 | 0.00 | 0.00 | 0.00 | 51 | 1017.6 |
| 20260506183058 | 7 | 315 | 20.9 | 37.0 | 0.00 | 0.00 | 0.00 | 51 | 1017.8 |
| 20260506180018 | 6 | 315 | 16.1 | 30.6 | 0.00 | 0.00 | 0.00 | 52 | 1017.9 |
| 20260506173018 | 6 | 315 | 24.1 | 35.4 | 0.00 | 0.00 | 0.00 | 52 | 1017.9 |
| 20260506170018 | 6 | 315 | 22.5 | 35.4 | 0.00 | 0.00 | 0.00 | 54 | 1018.1 |
| 20260506163017 | 6 | 315 | 20.9 | 38.6 | 0.00 | 0.00 | 0.00 | 56 | 1018.1 |
| 20260506160058 | 5 | 315 | 16.1 | 30.6 | 0.00 | 0.00 | 0.00 | 60 | 1018.0 |
| 20260506153017 | 5 | 315 | 11.3 | 20.9 | 0.00 | 0.00 | 0.00 | 62 | 1017.9 |